{"data":{"norad_id":59458,"epoch":"2026-05-25T04:53:14.762976Z","epoch_age_seconds":53358,"freshness":"FRESH","line1":"1 59458U 24068D   26145.20364309  .00000065  00000+0  11891-4 0  9990","line2":"2 59458  43.0027 322.4862 0001030 278.0650  82.0084 15.27575579120220","mean_motion":15.27575579,"eccentricity":0.000103,"inclination_deg":43.0027,"raan_deg":322.4862,"arg_perigee_deg":278.065,"mean_anomaly_deg":82.0084,"bstar":1.1891e-5,"rev_number":12022,"period_min":94.267021533735,"perigee_km":482.35563060461,"apogee_km":483.76903766744,"semimajor_km":6861.199334136,"source":"CELESTRAK","updated_at":"2026-05-25T13:38:18.948393Z"}}